�N����,����,�~����,�C��,���x,�C��,����,���ϕ���,�ő�u�ԕ���,�ő厞����,���˗�,�I�_���x,�n�����x,�ő啗���N��,DTYPE
"16/12/18","00:10",0.0,4.2,94.4,1023.4,303.7,1.6,2.0,313.5,0.00,3.4,7.7,"00:02:56",1
"16/12/18","00:20",0.0,4.2,94.4,1023.4,282.0,1.5,2.0,296.9,0.00,3.4,7.6,"00:16:48",1
"16/12/18","00:30",0.0,4.1,94.4,1023.2,291.0,1.5,2.4,318.4,0.00,3.3,7.7,"00:24:00",1
"16/12/18","00:40",0.0,3.9,94.1,1023.2,301.6,1.7,2.1,316.6,0.00,3.1,7.7,"00:35:44",1
"16/12/18","00:50",0.0,3.7,94.2,1023.2,292.6,1.5,2.1,266.1,0.00,2.9,7.5,"00:42:24",1
"16/12/18","01:00",0.0,3.6,94.5,1023.2,296.9,1.5,2.4,298.4,0.00,2.8,7.3,"00:54:00",1
"16/12/18","01:10",0.0,3.4,94.3,1023.2,296.7,1.2,1.7,321.5,0.00,2.6,7.4,"01:02:40",1
"16/12/18","01:20",0.0,2.9,94.3,1023.0,307.7,1.6,2.0,312.8,0.00,2.1,7.2,"01:11:12",1
"16/12/18","01:30",0.0,2.6,95.2,1023.0,294.6,2.0,2.8,312.8,0.00,2.0,7.2,"01:28:42",1
"16/12/18","01:40",0.0,2.7,96.0,1022.7,304.9,1.7,2.8,314.2,0.00,2.2,7.1,"01:33:20",1
"16/12/18","01:50",0.0,2.4,95.9,1023.4,261.5,0.3,1.4,286.9,0.00,1.9,7.2,"01:49:42",1
"16/12/18","02:00",0.0,2.3,96.5,1023.2,300.5,1.5,2.7,319.2,0.00,1.8,7.2,"01:53:54",1
"16/12/18","02:10",0.0,2.0,96.7,1023.2,308.8,2.7,3.9,320.6,0.00,1.6,7.3,"02:01:02",1
"16/12/18","02:20",0.0,1.7,97.2,1022.7,302.4,2.3,3.1,315.0,0.00,1.3,7.1,"02:11:36",1
"16/12/18","02:30",0.0,1.7,97.8,1023.0,300.5,2.1,2.9,315.5,0.00,1.4,7.0,"02:26:32",1
"16/12/18","02:40",0.0,1.8,98.1,1023.0,237.5,0.8,1.8,278.3,0.00,1.6,6.8,"02:30:24",1
"16/12/18","02:50",0.0,2.1,97.2,1022.7,285.6,1.7,3.2,318.2,0.00,1.7,6.6,"02:46:26",1
"16/12/18","03:00",0.0,1.8,98.1,1023.2,293.0,1.5,2.7,304.1,0.00,1.6,6.9,"02:59:52",1
"16/12/18","03:10",0.0,1.8,97.3,1023.0,318.6,3.1,3.7,320.1,0.00,1.5,6.6,"03:00:42",1
"16/12/18","03:20",0.0,1.3,98.3,1023.0,292.6,2.1,2.7,311.4,0.00,1.1,6.9,"03:15:14",1
"16/12/18","03:30",0.0,1.5,97.9,1023.2,290.0,1.8,2.7,306.7,0.00,1.2,6.6,"03:29:52",1
"16/12/18","03:40",0.0,1.9,99.3,1023.2,315.2,2.5,3.6,327.4,0.00,1.8,6.6,"03:36:24",1
"16/12/18","03:50",0.0,2.3,98.1,1023.0,307.9,1.5,2.7,314.7,0.00,2.1,6.8,"03:41:20",1
"16/12/18","04:00",0.0,2.1,97.7,1022.7,302.5,2.5,3.1,311.4,0.00,1.8,6.9,"03:55:36",1
"16/12/18","04:10",0.0,1.6,98.6,1022.7,291.7,1.8,2.7,317.0,0.00,1.4,6.7,"04:00:40",1
"16/12/18","04:20",0.0,1.9,98.1,1022.7,299.1,1.8,3.6,319.9,0.00,1.7,6.5,"04:15:44",1
"16/12/18","04:30",0.0,1.7,97.7,1023.2,294.0,2.1,2.8,314.2,0.00,1.4,6.4,"04:21:36",1
"16/12/18","04:40",0.0,1.4,98.9,1023.2,293.1,1.7,2.7,312.6,0.00,1.3,6.7,"04:30:08",1
"16/12/18","04:50",0.0,1.6,98.2,1023.2,309.2,2.7,3.6,321.5,0.00,1.4,6.6,"04:44:40",1
"16/12/18","05:00",0.0,1.7,98.0,1023.4,306.9,2.3,3.3,324.5,0.00,1.5,6.4,"04:52:56",1
"16/12/18","05:10",0.0,1.4,98.0,1023.2,285.5,1.5,1.8,271.9,0.00,1.2,6.4,"05:00:56",1
"16/12/18","05:20",0.0,1.3,97.9,1023.4,294.2,1.8,3.2,321.9,0.00,1.0,6.5,"05:16:56",1
"16/12/18","05:30",0.0,1.0,99.1,1023.7,317.2,2.8,3.4,319.5,0.00,0.9,6.5,"05:21:28",1
"16/12/18","05:40",0.0,1.1,98.5,1023.2,298.4,2.0,2.8,314.2,0.00,0.9,6.2,"05:32:24",1
"16/12/18","05:50",0.0,1.0,98.5,1023.2,279.3,1.8,1.9,297.3,0.00,0.8,6.3,"05:40:16",1
"16/12/18","06:00",0.0,1.2,98.8,1023.2,284.8,2.0,2.1,298.5,0.00,1.1,6.2,"05:52:16",1
"16/12/18","06:10",0.0,1.5,98.8,1023.4,299.4,2.1,2.8,320.9,0.00,1.4,6.2,"06:09:04",1
"16/12/18","06:20",0.0,1.1,98.0,1023.9,298.2,2.1,3.1,320.5,0.00,0.9,6.2,"06:10:02",1
"16/12/18","06:30",0.0,0.6,98.2,1023.7,298.1,1.7,2.9,319.3,0.00,0.4,6.1,"06:20:08",1
"16/12/18","06:40",0.0,0.4,98.5,1023.4,286.3,1.5,2.1,309.3,0.00,0.2,6.1,"06:30:02",1
"16/12/18","06:50",0.0,0.6,98.8,1024.1,293.9,1.8,2.4,306.3,0.00,0.5,6.0,"06:41:52",1
"16/12/18","07:00",0.0,0.6,98.4,1023.7,304.2,2.1,2.7,309.9,0.00,0.4,6.1,"06:56:32",1
"16/12/18","07:10",0.0,0.4,98.7,1023.9,307.9,2.3,3.2,323.7,0.00,0.3,6.0,"07:04:00",1
"16/12/18","07:20",0.0,0.5,99.1,1023.7,297.8,2.1,2.7,323.8,0.00,0.4,6.1,"07:12:56",1
"16/12/18","07:30",0.0,1.0,98.9,1023.7,289.1,2.1,2.7,310.9,0.00,0.9,6.1,"07:28:24",1
"16/12/18","07:40",0.0,1.3,99.2,1023.9,291.2,2.1,2.6,304.7,0.00,1.2,5.8,"07:30:02",1
"16/12/18","07:50",0.0,1.7,99.1,1024.1,306.9,2.0,2.7,327.6,0.00,1.6,6.0,"07:48:24",1
"16/12/18","08:00",0.0,2.0,99.0,1024.4,289.5,1.1,2.1,322.9,0.01,1.9,5.9,"07:50:16",1
"16/12/18","08:10",0.0,2.3,99.0,1024.6,287.4,0.7,1.8,310.1,0.02,2.2,6.0,"08:01:28",1
"16/12/18","08:20",0.0,2.7,98.6,1024.6,236.4,0.3,1.2,267.2,0.03,2.5,6.2,"08:10:32",1
"16/12/18","08:30",0.0,3.4,97.0,1024.9,296.7,1.0,1.2,295.9,0.04,3.0,6.1,"08:22:16",1
"16/12/18","08:40",0.0,3.9,96.5,1024.9,321.5,1.3,2.2,336.1,0.06,3.4,6.3,"08:35:44",1
"16/12/18","08:50",0.0,4.4,95.5,1025.3,304.6,1.1,2.1,322.6,0.08,3.8,6.0,"08:40:32",1
"16/12/18","09:00",0.0,5.2,93.1,1025.8,274.0,1.2,1.6,282.0,0.10,4.2,6.1,"08:53:40",1
"16/12/18","09:10",0.0,5.9,89.8,1025.6,268.1,1.1,1.6,262.9,0.12,4.4,6.4,"09:07:00",1
"16/12/18","09:20",0.0,6.5,88.0,1026.0,252.5,0.7,1.1,287.2,0.14,4.7,6.2,"09:10:08",1
"16/12/18","09:30",0.0,6.7,86.2,1025.8,237.5,0.8,2.2,255.9,0.18,4.6,6.5,"09:29:58",1
"16/12/18","09:40",0.0,7.2,85.5,1026.3,247.0,1.1,2.0,248.5,0.21,5.0,6.6,"09:33:26",1
"16/12/18","09:50",0.0,7.8,83.6,1026.7,251.4,0.7,1.4,251.9,0.24,5.2,6.8,"09:42:24",1
"16/12/18","10:00",0.0,7.7,81.8,1026.3,178.1,0.6,1.1,108.1,0.26,4.8,7.0,"09:58:00",1
"16/12/18","10:10",0.0,8.1,80.6,1026.7,220.0,0.7,1.7,201.4,0.28,5.0,7.3,"10:09:44",1
"16/12/18","10:20",0.0,8.6,78.4,1026.7,241.4,0.7,1.7,243.6,0.30,5.1,7.3,"10:13:44",1
"16/12/18","10:30",0.0,8.6,77.5,1026.7,221.8,0.6,1.3,266.3,0.32,4.9,7.5,"10:22:32",1
"16/12/18","10:40",0.0,9.2,74.9,1027.0,235.7,0.7,1.4,243.0,0.34,5.0,7.8,"10:31:12",1
"16/12/18","10:50",0.0,9.3,75.2,1026.5,183.6,0.7,1.9,109.7,0.35,5.2,8.0,"10:41:12",1
"16/12/18","11:00",0.0,9.7,74.6,1026.3,236.3,1.2,2.5,230.0,0.37,5.5,8.2,"10:58:24",1
"16/12/18","11:10",0.0,10.0,73.0,1026.5,238.2,1.0,2.0,220.0,0.38,5.4,8.2,"11:06:40",1
"16/12/18","11:20",0.0,10.3,72.0,1026.0,219.0,1.0,1.9,213.7,0.38,5.5,8.3,"11:16:00",1
"16/12/18","11:30",0.0,10.5,72.5,1025.6,215.9,0.8,2.0,232.4,0.39,5.8,8.5,"11:27:28",1
"16/12/18","11:40",0.0,10.6,70.2,1025.3,182.3,1.1,2.2,127.1,0.40,5.4,8.8,"11:30:08",1
"16/12/18","11:50",0.0,10.6,69.4,1024.9,166.6,0.7,1.8,121.5,0.40,5.3,9.1,"11:46:08",1
"16/12/18","12:00",0.0,10.9,67.8,1024.4,166.1,0.7,1.6,195.9,0.40,5.2,9.1,"11:56:08",1
"16/12/18","12:10",0.0,11.1,67.9,1024.1,144.1,1.1,2.2,169.5,0.41,5.4,9.4,"12:08:56",1
"16/12/18","12:20",0.0,11.9,67.9,1024.1,236.2,1.1,2.4,214.3,0.40,6.2,9.5,"12:19:12",1
"16/12/18","12:30",0.0,12.2,64.9,1024.4,217.0,1.1,2.8,217.1,0.41,5.8,9.7,"12:24:24",1
"16/12/18","12:40",0.0,12.5,64.8,1023.7,213.3,1.0,3.2,235.1,0.40,6.1,9.8,"12:33:36",1
"16/12/18","12:50",0.0,12.4,64.6,1023.7,190.3,1.3,2.7,205.7,0.39,6.0,10.0,"12:44:08",1
"16/12/18","13:00",0.0,12.6,62.4,1023.9,206.7,1.2,2.7,176.1,0.38,5.7,10.1,"12:55:04",1
"16/12/18","13:10",0.0,12.9,60.7,1023.7,207.6,1.2,2.6,233.3,0.38,5.5,10.4,"13:00:56",1
"16/12/18","13:20",0.0,12.9,59.5,1023.4,223.8,1.3,2.7,203.3,0.36,5.3,10.3,"13:10:02",1
"16/12/18","13:30",0.0,12.9,61.2,1023.2,219.7,1.2,2.7,220.8,0.34,5.7,10.5,"13:29:52",1
"16/12/18","13:40",0.0,13.1,59.1,1023.4,197.0,1.0,2.4,100.4,0.33,5.3,10.7,"13:37:20",1
"16/12/18","13:50",0.0,13.1,58.9,1023.2,211.5,1.2,3.1,197.5,0.31,5.3,10.6,"13:47:28",1
"16/12/18","14:00",0.0,13.1,57.1,1023.0,233.2,1.0,2.0,138.0,0.27,4.8,10.8,"13:52:48",1
"16/12/18","14:10",0.0,13.3,57.1,1022.7,211.1,1.2,3.6,228.8,0.26,5.0,10.8,"14:05:28",1
"16/12/18","14:20",0.0,13.4,59.5,1022.5,193.6,0.7,2.2,151.3,0.26,5.7,11.0,"14:14:16",1
"16/12/18","14:30",0.0,13.4,57.3,1022.3,7.5,0.7,1.2,7.7,0.23,5.2,10.8,"14:20:56",1
"16/12/18","14:40",0.0,13.6,57.6,1022.3,222.1,0.8,2.5,207.0,0.21,5.4,11.2,"14:36:32",1
"16/12/18","14:50",0.0,13.8,55.1,1022.3,237.7,0.8,2.4,226.2,0.19,5.0,11.1,"14:48:08",1
"16/12/18","15:00",0.0,13.8,54.7,1022.5,228.4,0.6,1.3,156.9,0.17,4.9,11.1,"14:50:08",1
"16/12/18","15:10",0.0,13.5,53.0,1022.3,257.0,1.1,2.2,241.1,0.15,4.2,11.3,"15:03:52",1
"16/12/18","15:20",0.0,13.4,55.3,1022.3,247.1,1.2,2.1,238.5,0.12,4.7,11.1,"15:16:56",1
"16/12/18","15:30",0.0,13.3,56.7,1022.3,246.0,1.0,1.9,242.6,0.09,4.9,11.2,"15:26:24",1
"16/12/18","15:40",0.0,13.0,58.5,1022.3,252.2,1.0,1.9,260.4,0.06,5.1,11.0,"15:34:32",1
"16/12/18","15:50",0.0,13.0,62.2,1022.5,253.5,0.8,2.0,325.0,0.07,6.0,11.1,"15:41:12",1
"16/12/18","16:00",0.0,12.6,62.4,1022.5,244.7,0.8,1.9,240.4,0.03,5.7,11.0,"15:57:04",1
"16/12/18","16:10",0.0,12.0,64.5,1022.5,254.4,1.3,2.2,240.9,0.02,5.6,11.0,"16:03:20",1
"16/12/18","16:20",0.0,11.4,66.7,1022.3,294.8,1.3,1.9,302.0,0.01,5.5,10.9,"16:11:52",1
"16/12/18","16:30",0.0,10.6,69.5,1022.3,290.0,1.3,1.9,275.2,0.00,5.3,11.0,"16:20:40",1
"16/12/18","16:40",0.0,10.0,71.7,1022.3,291.4,1.1,1.4,313.6,0.00,5.2,10.8,"16:38:24",1
"16/12/18","16:50",0.0,9.3,73.8,1022.5,296.0,1.6,2.2,315.6,0.00,4.9,10.4,"16:48:32",1
"16/12/18","17:00",0.0,8.9,75.4,1023.0,295.0,2.0,3.7,328.9,0.00,4.8,10.4,"16:50:02",1
"16/12/18","17:10",0.0,8.7,76.4,1022.7,314.6,2.8,4.0,330.4,0.00,4.8,10.4,"17:06:48",1
"16/12/18","17:20",0.0,8.4,76.9,1022.7,305.5,2.3,3.6,318.7,0.00,4.6,10.3,"17:12:56",1
"16/12/18","17:30",0.0,8.2,77.7,1023.0,311.2,2.6,3.5,330.8,0.00,4.6,10.2,"17:22:08",1
"16/12/18","17:40",0.0,7.9,78.5,1023.0,292.2,2.0,3.2,318.1,0.00,4.4,10.2,"17:32:00",1
"16/12/18","17:50",0.0,7.7,79.8,1023.0,288.4,1.5,2.2,324.7,0.00,4.5,10.0,"17:48:48",1
"16/12/18","18:00",0.0,7.7,80.3,1023.0,321.4,2.5,3.5,321.5,0.00,4.6,9.7,"17:56:24",1
"16/12/18","18:10",0.0,7.4,81.5,1022.7,308.6,3.0,4.4,321.7,0.00,4.5,9.7,"18:04:24",1
"16/12/18","18:20",0.0,7.1,81.9,1023.4,304.2,2.7,3.4,320.6,0.00,4.3,9.9,"18:18:24",1
"16/12/18","18:30",0.0,7.0,82.9,1023.0,310.8,3.4,4.7,306.5,0.00,4.3,9.5,"18:29:28",1
"16/12/18","18:40",0.0,6.8,83.0,1023.2,303.1,2.2,3.9,325.5,0.00,4.2,9.6,"18:31:52",1
"16/12/18","18:50",0.0,6.5,84.6,1023.2,312.6,1.2,2.8,339.0,0.00,4.1,9.5,"18:47:12",1
"16/12/18","19:00",0.0,6.5,85.8,1023.4,311.3,2.6,4.4,313.8,0.00,4.3,9.1,"18:58:32",1
"16/12/18","19:10",0.0,6.5,85.2,1023.2,308.5,3.4,4.8,319.9,0.00,4.2,9.2,"19:04:56",1
"16/12/18","19:20",0.0,6.4,85.6,1023.4,305.1,3.4,5.4,322.1,0.00,4.2,9.3,"19:14:48",1
"16/12/18","19:30",0.0,6.3,85.9,1023.2,304.1,3.4,4.2,314.0,0.00,4.2,9.0,"19:20:48",1
"16/12/18","19:40",0.0,6.3,86.0,1023.9,308.2,3.0,4.5,325.1,0.00,4.2,9.0,"19:31:36",1
"16/12/18","19:50",0.0,6.0,86.0,1024.1,288.7,0.6,1.2,319.5,0.00,3.9,8.9,"19:45:28",1
"16/12/18","20:00",0.0,5.6,87.3,1023.7,299.6,1.8,2.5,322.7,0.00,3.7,8.7,"19:56:08",1
"16/12/18","20:10",0.0,5.2,88.4,1023.2,286.1,1.6,2.1,304.8,0.00,3.5,9.0,"20:05:12",1
"16/12/18","20:20",0.0,5.0,89.6,1023.2,298.1,1.2,2.6,318.9,0.00,3.5,8.7,"20:11:52",1
"16/12/18","20:30",0.0,4.7,90.8,1023.4,288.3,1.5,2.0,266.4,0.00,3.4,8.9,"20:22:32",1
"16/12/18","20:40",0.0,4.8,92.0,1023.7,313.0,2.0,2.8,328.2,0.00,3.7,8.5,"20:39:44",1
"16/12/18","20:50",0.0,4.7,91.8,1023.2,299.7,1.7,3.2,324.9,0.00,3.5,8.6,"20:43:20",1
"16/12/18","21:00",0.0,4.6,92.1,1023.4,299.1,1.7,2.2,318.3,0.00,3.5,8.6,"20:53:20",1
"16/12/18","21:10",0.0,4.5,92.7,1023.2,286.9,1.2,1.8,300.6,0.00,3.5,8.5,"21:03:04",1
"16/12/18","21:20",0.0,4.5,93.0,1022.7,283.8,1.5,2.0,289.0,0.00,3.5,8.5,"21:13:04",1
"16/12/18","21:30",0.0,4.5,92.7,1023.2,297.1,1.8,2.6,317.3,0.00,3.5,8.5,"21:27:28",1
"16/12/18","21:40",0.0,4.3,92.6,1023.0,309.8,1.2,2.7,320.4,0.00,3.2,8.2,"21:31:04",1
"16/12/18","21:50",0.0,4.1,93.2,1023.4,311.9,1.8,2.6,323.1,0.00,3.1,8.2,"21:40:24",1
"16/12/18","22:00",0.0,3.9,93.7,1023.2,314.0,1.7,2.8,327.7,0.00,3.0,8.2,"21:50:40",1
"16/12/18","22:10",0.0,4.0,94.5,1023.2,286.7,1.3,2.1,317.3,0.00,3.2,8.1,"22:05:12",1
"16/12/18","22:20",0.0,4.1,94.1,1023.0,302.2,1.6,2.2,316.6,0.00,3.3,8.0,"22:16:08",1
"16/12/18","22:30",0.0,3.7,93.9,1023.4,311.4,1.1,2.1,325.1,0.00,2.9,8.1,"22:20:24",1
"16/12/18","22:40",0.0,3.5,94.5,1023.0,313.9,1.8,2.4,322.4,0.00,2.7,8.1,"22:32:40",1
"16/12/18","22:50",0.0,3.5,95.3,1023.0,330.0,1.8,2.7,316.6,0.00,2.9,8.0,"22:44:56",1
"16/12/18","23:00",0.0,3.3,95.4,1023.0,305.8,1.2,2.1,321.4,0.00,2.7,7.8,"22:53:20",1
"16/12/18","23:10",0.0,3.5,96.1,1023.0,289.5,1.6,2.2,301.0,0.00,3.0,7.8,"23:05:16",1
"16/12/18","23:20",0.0,3.4,95.6,1022.7,341.9,1.2,3.1,324.3,0.00,2.8,7.6,"23:10:02",1
"16/12/18","23:30",0.0,3.0,96.0,1022.5,325.4,1.8,3.3,328.7,0.00,2.5,7.8,"23:21:36",1
"16/12/18","23:40",0.0,2.9,96.6,1022.5,294.8,1.6,2.2,311.4,0.00,2.5,7.4,"23:37:20",1
"16/12/18","23:50",0.0,3.1,97.4,1022.3,280.7,1.3,2.1,280.3,0.00,2.8,7.6,"23:49:24",1
"16/12/18","24:00",0.0,3.4,97.4,1022.7,315.4,1.7,2.4,326.0,0.00,3.1,7.7,"23:57:28",1
